Regional Weather Roundup
Issued by NWS Jackson, KY

Home | Current Version | Previous Version | Text Only | Print | Product List | Glossary On
Versions: 1 2 3 4 5 6 7 8 9 10 11 12 13 14 15 16 17 18 19 20 21 22 23 24 25 26 27 28 29 30 31 32 33 34 35 36 37 38 39 40 41 42 43 44 45 46 47 48 49 50
000
ASUS43 KJKL 030910
RWRJKL

EAST KENTUCKY HOURLY WEATHER ROUNDUP
NATIONAL WEATHER SERVICE JACKSON KY
500 AM EDT WED JUN 03 2020

NOTE: "FAIR" INDICATES FEW OR NO CLOUDS BELOW 12,000 FEET WITH
NO SIGNIFICANT WEATHER AND/OR OBSTRUCTIONS TO VISIBILITY.

* THESE REPORTS ARE NOT UNDER NWS QUALITY CONTROL AND MAY NOT
  REPORT WEATHER SUCH AS PRECIPITATION AND FOG.

KYZ079-080-083-085-087-088-110-112-115-119-120-031000
...EASTERN KENTUCKY...

CITY           SKY/WX    TMP DP  RH WIND       PRES   REMARKS
JACKSON        CLEAR     71  64  78 VRB5      30.03S
LONDON         CLEAR     68  63  84 S5        30.05F
SOMERSET*      PTCLDY    63  63 100 MISG      30.05F
MONTICELLO*    CLEAR     62  62 100 W9        30.07F
WILLIAMSBURG*  FAIR      66  66 100 CALM      30.06F
MIDDLESBORO*   CLEAR     62  62 100 CALM      30.09R
HARLAN APT*    CLOUDY    62  62  99 CALM      30.08S VSB 1
PIKE CO APT*   FAIR      71  62  75 CALM      30.04R
BIG SANDY APT* SUNNY     72  63  75 SW5       30.02S
MOREHEAD APT*  PTSUNNY   72  61  68 SW8       30.01S
ASHLAND*       MOCLDY    63  63 100 CALM      29.97S
$$

KYZ035-036-041-042-044-050-067-078-099-031000
...CENTRAL KENTUCKY...

CITY           SKY/WX    TMP DP  RH WIND       PRES   REMARKS
MT STERLING*   PTCLDY    70  63  78 SW6       30.02S
FLEMING/MASON* MOCLDY    67  59  75 W5        30.00R
DANVILLE*      PTCLDY    68  63  83 S3        30.03S
RICHMOND*      FAIR      70  63  78 SW6       30.02R
LEXINGTON      PTCLDY    67  61  81 SW9       30.00S
FRANKFORT      PTCLDY    66  58  75 SW7       29.98S
LOUISVILLE     PTCLDY    73  57  57 SW7       29.97S
LEBANON*       FAIR      68  63  83 S6        30.01S
GLASGOW*       PTCLDY    63  58  83 CALM      30.03S
BOWLING GREEN  CLEAR     68  63  84 S3        30.02S
$$

KYZ091>093-OHZ055-061-077-WVZ005-015-034-035-042-031000
...SOUTHERN OHIO/WEST VIRGINIA...

CITY           SKY/WX    TMP DP  RH WIND       PRES   REMARKS
COVINGTON      MOCLDY    66  56  70 S8        29.95S
COLUMBUS       CLOUDY    73  55  53 SW10      29.88F
DAYTON         MOCLDY    70  56  61 SW12      29.92S
WILMINGTON     MOCLDY    67  55  65 W8        29.94S
HUNTINGTON     PTCLDY    70  63  78 S6        29.97S
CHARLESTON     CLEAR     72  62  71 SW8       29.98R
PINEVILLE*     CLEAR     62  62  99 MISG      30.09S
BECKLEY        CLEAR     65  61  87 SW5       30.07S
BLUEFIELD      CLEAR     64  62  93 W10       30.09F
LOGAN CO APT*  FAIR      72  64  78 SW6       30.03S
$$

VAZ002-007-008-TNZ017-027-036-066-071-031000
...SOUTHWEST VIRGINIA/EAST TENNESSEE...

CITY           SKY/WX    TMP DP  RH WIND       PRES   REMARKS
WISE*          CLEAR     63  63 100 SW6       30.12F
JONESVILLE*      N/A     63  63 100 CALM      30.10R
ABINGDON*      CLEAR     64  58  82 CALM      30.11F
BRISTOL        CLEAR     62  59  90 CALM      30.09S
MORRISTOWN*    MOSUNNY   66  63  88 SW5       30.07S
SEVIERVILLE*   CLOUDY    64  63  94 CALM      30.07S
KNOXVILLE      CLEAR     69  61  75 W6        30.06R
LAFOLLETTE*    SUNNY     63  63 100 CALM      30.10S FOG
OAK RIDGE      CLEAR     68  63  84 CALM      30.08S
CROSSVILLE     CLEAR     63  61  93 CALM      30.12R
NASHVILLE      CLEAR     68  63  84 S5        30.04S
$$

...KEY TO REMARKS...
VSB - VISIBILITY IN MILES
WCI - WIND CHILL INDEX
HX  - HEAT INDEX

$$



USA.gov is the U.S. government's official web portal to all federal, state and local government web resources and services.